This demonstration page uses our WeatherBlox Daily Observations layout. Learn more.

40.92945, -100.16068

Hourly Observations for June 25, 2018

Temp ( °F °C ) Dew Point ( °F °C ) Humidity (%) Winds ( mph kmh ) Pressure ( in mb ) Visibility ( mi km ) Precip ( " mm )
12:15 am 00:15 Partly Cloudy 62 16.7 59 15 90 90 Calm 29.85 1011 10 16.0934 0 0
12:35 am 00:35 Partly Cloudy 62 16.5 59 15 91 91 E 7 11 29.83 1010 10 16.0934 0 0
12:55 am 00:55 Clear 61 16 58 14.6 91 91 W 9 15 29.85 1011 10 16.0934 0 0
1:15 am 01:15 Clear 61 16.2 59 15 93 93 WNW 10 17 29.88 1012 10 16.0934 0 0
1:35 am 01:35 Partly Cloudy 62 16.5 59 14.8 90 90 WNW 12 19 29.88 1012 10 16.0934 0 0
1:55 am 01:55 Partly Cloudy 62 16.4 58 14.7 90 90 NNW 9 15 29.88 1012 10 16.0934 0 0
2:15 am 02:15 Mostly Cloudy 62 16.4 58 14.7 90 90 NNW 7 11 29.88 1012 10 16.0934 0 0
2:35 am 02:35 Cloudy 62 16.4 59 14.8 90 90 NW 6 9 29.88 1012 10 16.0934 0 0
2:55 am 02:55 Cloudy 62 16.5 59 15 91 91 WNW 6 9 29.88 1012 10 16.0934 0 0
3:15 am 03:15 Cloudy 62 16.5 59 15 91 91 W 8 13 29.88 1012 10 16.0934 0 0
3:35 am 03:35 Cloudy 62 16.5 59 15.1 92 92 WNW 8 13 29.88 1012 10 16.0934 0 0
3:55 am 03:55 Cloudy with Light Rain 62 16.5 60 15.3 93 93 WNW 6 9 29.88 1012 10 16.0934 0.01 0.254
4:15 am 04:15 Cloudy with Light Rain 62 16.7 60 15.5 93 93 NW 7 11 29.88 1012 10 16.0934 0.01 0.254
4:35 am 04:35 Cloudy with Light Rain 62 16.8 60 15.7 93 93 WNW 8 13 29.88 1012 10 16.0934 0.01 0.254
4:55 am 04:55 Cloudy with Light Rain 63 17 61 16 94 94 WNW 8 13 29.88 1012 7 11.26538 0.02 0.508
5:15 am 05:15 Cloudy with Light Rain 63 17 61 16 94 94 NW 8 13 29.85 1011 10 16.0934 0.01 0.254
5:35 am 05:35 Cloudy with Rain 62 16.8 60 15.8 94 94 NW 7 11 29.85 1011 10 16.0934 0.01 0.254
5:55 am 05:55 Cloudy with Rain 62 16.8 60 15.8 94 94 NW 6 9 29.85 1011 10 16.0934 0.02 0.508
6:15 am 06:15 Cloudy with Light Rain 62 16.8 61 16 95 95 NW 9 15 29.85 1011 10 16.0934 0.01 0.254
6:35 am 06:35 Cloudy with Light Rain 62 16.8 61 16 95 95 NNW 8 13 29.85 1011 10 16.0934 0.03 0.762
6:55 am 06:55 Cloudy with Rain 62 16.9 61 16 94 94 NW 5 7 29.88 1012 7 11.26538 0.05 1.27
7:15 am 07:15 Cloudy with Rain 63 17 61 16.2 95 95 NNW 6 9 29.88 1012 5 8.0467 0.03 0.762
7:35 am 07:35 Cloudy with Light Rain 63 17.1 61 16.2 94 94 N 7 11 29.88 1012 10 16.0934 0.05 1.27
7:55 am 07:55 Cloudy with Light Rain 62 16.7 60 15.3 92 92 N 10 17 29.88 1012 10 16.0934 0.06 1.524
8:15 am 08:15 Cloudy with Light Drizzle 61 16.2 58 14.4 89 89 N 8 13 29.88 1012 10 16.0934 0 0
8:35 am 08:35 Cloudy 61 16 58 14.4 90 90 N 7 11 29.88 1012 10 16.0934 0 0
8:55 am 08:55 Cloudy with Light Rain 61 16.2 58 14.4 89 89 N 6 9 29.88 1012 10 16.0934 0 0
9:15 am 09:15 Cloudy 62 16.7 59 14.8 89 89 NNW 6 9 29.88 1012 10 16.0934 0 0
9:35 am 09:35 Cloudy 62 16.7 58 14.6 88 88 NNW 7 11 29.88 1012 10 16.0934 0 0
9:55 am 09:55 Cloudy 63 17 59 14.9 88 88 NNW 6 9 29.88 1012 10 16.0934 0 0
10:15 am 10:15 Cloudy 64 17.5 59 15.1 86 86 NW 7 11 29.88 1012 10 16.0934 0 0
10:35 am 10:35 Cloudy 64 18 59 15.2 84 84 NNW 7 11 29.85 1011 10 16.0934 0 0
10:55 am 10:55 Cloudy 66 18.8 60 15.5 81 81 NW 8 13 29.85 1011 10 16.0934 0 0
11:15 am 11:15 Cloudy 67 19.6 60 15.6 78 78 NW 10 17 29.83 1010 10 16.0934 0 0
11:35 am 11:35 Cloudy 67 19.4 59 15.1 76 76 WNW 13 20 29.85 1011 10 16.0934 0 0
11:55 am 11:55 Cloudy 68 20 59 15 73 73 NW 9 15 29.83 1010 10 16.0934 0 0
12:15 pm 12:15 Cloudy 68 20 59 14.9 73 73 WNW 12 19 29.83 1010 10 16.0934 0 0
12:35 pm 12:35 Cloudy 69 20.5 59 15 71 71 WNW 12 19 29.83 1010 10 16.0934 0 0
12:55 pm 12:55 Cloudy 70 21 58 14.4 66 66 WNW 13 20 29.83 1010 10 16.0934 0 0
1:15 pm 13:15 Cloudy 71 21.5 58 14.7 65 65 WNW 13 20 29.83 1010 10 16.0934 0 0
1:35 pm 13:35 Cloudy 71 21.4 58 14.6 65 65 WNW 13 20 29.83 1010 10 16.0934 0 0
1:55 pm 13:55 Cloudy 72 22 59 15.2 65 65 W 13 20 29.83 1010 10 16.0934 0 0
2:15 pm 14:15 Cloudy 71 21.8 59 15.1 66 66 NW 14 22 29.83 1010 10 16.0934 0 0
2:35 pm 14:35 Cloudy 69 20.5 60 15.8 75 75 WNW 14 22 29.83 1010 7 11.26538 0 0
2:55 pm 14:55 Cloudy 70 21.3 59 15 67 67 WNW 14 22 29.83 1010 10 16.0934 0 0
3:15 pm 15:15 Cloudy 70 21.3 59 15.1 68 68 W 14 22 29.83 1010 10 16.0934 0 0
3:35 pm 15:35 Cloudy 70 20.9 59 15 69 69 W 17 28 29.83 1010 10 16.0934 0 0
3:55 pm 15:55 Cloudy 69 20.6 59 14.9 70 70 W 15 24 29.8 1009 10 16.0934 0 0
4:15 pm 16:15 Cloudy 69 20.5 60 15.5 73 73 W 17 28 29.8 1009 10 16.0934 0 0
4:35 pm 16:35 Cloudy 68 19.8 60 15.3 75 75 W 15 24 29.8 1009 10 16.0934 0 0
4:55 pm 16:55 Cloudy 67 19.5 60 15.4 77 77 W 17 28 29.8 1009 10 16.0934 0 0
5:15 pm 17:15 Cloudy 67 19.6 60 15.6 78 78 W 15 24 29.8 1009 10 16.0934 0 0
5:35 pm 17:35 Cloudy 70 20.9 61 15.9 73 73 W 16 26 29.8 1009 10 16.0934 0 0
5:55 pm 17:55 Cloudy 67 19.3 60 15.3 78 78 W 16 26 29.8 1009 10 16.0934 0 0
6:15 pm 18:15 Cloudy with Rain 64 17.9 61 16 89 89 W 12 19 29.83 1010 1.5 2.41401 0 0
6:35 pm 18:35 Cloudy 65 18.1 62 16.5 90 90 W 9 15 29.8 1009 10 16.0934 0 0
6:55 pm 18:55 Cloudy 65 18.3 61 16.1 87 87 W 10 17 29.8 1009 10 16.0934 0 0
7:15 pm 19:15 Cloudy 66 18.7 61 16.3 86 86 W 10 17 29.77 1008 10 16.0934 0 0
7:35 pm 19:35 Cloudy 66 18.9 62 16.9 88 88 NW 7 11 29.77 1008 10 16.0934 0 0
7:55 pm 19:55 Cloudy 67 19.5 62 16.7 84 84 WNW 15 24 29.77 1008 10 16.0934 0 0
8:15 pm 20:15 Cloudy 66 19.1 62 16.6 86 86 WNW 12 19 29.77 1008 10 16.0934 0 0
8:35 pm 20:35 Mostly Cloudy 66 19 62 16.8 87 87 WNW 10 17 29.8 1009 10 16.0934 0 0
8:55 pm 20:55 Mostly Cloudy 66 19 63 17.2 89 89 NNW 9 15 29.8 1009 10 16.0934 0 0
9:15 pm 21:15 Partly Cloudy 66 18.8 62 16.9 89 89 NNW 10 17 29.8 1009 10 16.0934 0 0
9:35 pm 21:35 Clear 65 18.4 62 16.6 89 89 NNW 7 11 29.83 1010 10 16.0934 0 0
9:55 pm 21:55 Clear 65 18.1 62 16.5 90 90 NW 6 9 29.85 1011 10 16.0934 0 0
10:15 pm 22:15 Clear 64 17.7 61 16.2 91 91 Calm 29.85 1011 10 16.0934 0 0
10:35 pm 22:35 Clear 64 17.5 61 16.2 92 92 WNW 3 6 29.85 1011 10 16.0934 0 0
10:55 pm 22:55 Clear 64 17.5 61 16.1 92 92 Calm 29.85 1011 10 16.0934 0 0
11:15 pm 23:15 Clear 64 17.5 61 16.2 92 92 W 6 9 29.85 1011 10 16.0934 0 0
11:35 pm 23:35 Clear 64 17.6 61 16.3 92 92 W 8 13 29.88 1012 10 16.0934 0 0
11:55 pm 23:55 Clear 64 17.7 61 16.3 92 92 W 7 11 29.88 1012 10 16.0934 0 0

Powered by AerisWeather